Simultaneous Nadir Overpasses (SNOs) Predictions

Prediction of SNOs between GOES-14 and NPP Satellite Orbit:

Table of predicted SNOs for the next 14.0 days since TLE Epoch: 8/19/2023
Index Date Time (GOES-14) GOES-14 Lat,Lon NPP Lat,Lon Distance(km) Time Diff (sec)
1 08/20/2023 20:41:22 0.47,-108.55 0.33,-109.17 70.75 80
2 08/21/2023 20:25:17 0.46,-108.55 1.33,-104.63 445.92 80
3 08/23/2023 08:44:24 -0.48,-108.64 -0.18,-109.91 144.87 80
4 08/24/2023 08:28:20 -0.48,-108.64 -1.23,-105.39 371.29 80
5 08/25/2023 20:47:35 0.50,-108.53 0.02,-110.69 245.37 80
6 08/26/2023 20:31:29 0.50,-108.53 1.02,-106.15 270.54 80
7 08/28/2023 08:50:37 -0.52,-108.62 0.13,-111.43 320.78 80
8 08/29/2023 08:34:31 -0.51,-108.61 -0.87,-106.90 195.03 80
9 08/30/2023 20:53:46 0.53,-108.50 -0.32,-112.20 421.67 80
10 08/31/2023 20:37:41 0.52,-108.50 0.68,-107.66 94.52 80
